[[{"header":{"parameterUnit":"m.s-1","parameterCategory":1,"la1":30.2991,"la2":30.254,"lo1":-89.0895,"lo2":-89.0444,"dy":0.0017,"dx":0.0017,"nx":28,"ny":28,"refTime":"2023-09-22T09:00:00:Z","depth":0,"parameterNumber":2,"parameterNumberName":"U-component_of_WINDS"},"data":[0,0,0,0,0,0,0,0,0,0,0,0,0,0,0,0,0,0,0,0,0,0,0,0,0,0,0,0,0,0,0,0,0,0,0,0,0,0,0,0,0,0,0,0,0,0,0,0,0,0,0,0,0,0,0,0,0,0,3.3074,3.3074,0,3.3084,3.3085,3.3085,3.3036,3.3034,3.3033,3.3031,3.3041,3.3042,3.3044,0,0,0,0,0,0,0,0,0,0,0,0,0,3.3011,3.3012,3.3074,3.3074,3.3075,3.3084,3.3085,3.3085,3.3036,3.3034,3.3032,3.3031,3.304,3.3042,3.3044,0,0,0,0,0,0,0,0,0,0,0,0,0,3.3031,3.3013,3.3074,3.3051,3.3049,3.3084,3.3085,3.3085,3.3036,3.3034,3.3032,3.303,3.304,3.3042,3.3044,3.3101,0,0,3.3052,3.3053,0,0,0,0,0,0,0,0,3.303,3.3034,3.3055,3.3053,3.3051,3.3057,3.3066,3.309,3.3037,3.3041,3.3031,3.3029,3.3048,3.3049,3.3056,3.3102,3.3102,3.3052,3.3053,3.3054,3.3055,0,0,0,0,0,0,0,3.3029,3.3033,3.3078,3.3055,3.3053,3.304,3.3041,3.307,3.3056,3.3041,3.3037,3.3039,3.3046,3.3054,3.3056,3.3102,3.3052,3.3054,3.3055,3.3056,3.3193,3.3195,0,0,0,0,0,0,3.3031,3.3032,3.3078,3.3078,3.3035,3.3043,3.3044,3.3057,3.3056,3.3054,3.3041,3.3037,3.3051,3.3053,3.3056,3.312,3.3054,3.3056,3.3058,3.3191,3.3193,3.3196,0,0,0,0,0,0,3.303,3.3035,3.3077,3.3054,3.3059,3.3046,3.3062,3.3058,3.3065,3.3056,3.3053,3.3051,3.3049,3.3053,3.309,3.3119,3.3057,3.306,3.3188,3.3191,3.3195,3.325,0,0,0,0,0,0,3.3028,3.3035,3.3057,3.3055,3.306,3.3112,3.3064,3.306,3.307,3.3064,3.3065,3.3063,3.3048,3.3087,3.3092,3.3122,3.3061,3.3185,3.319,3.3194,3.3245,3.3255,3.3263,0,0,0,0,0,3.3026,3.3073,3.3059,3.3064,3.3088,3.3114,3.3116,3.3099,3.3072,3.3094,3.3087,3.3063,3.3116,3.3091,3.3097,3.3127,3.3183,3.3188,3.3193,3.3241,3.3253,3.3263,0,0,0,0,0,0,3.3079,3.3072,3.3056,3.3104,3.311,3.3105,3.3132,3.3112,3.3125,3.3119,3.3096,3.3097,3.3137,3.3137,3.3109,3.3181,3.3145,3.3151,3.318,3.319,3.3199,3.3197,3.3063,0,0,0,0,0,3.3096,3.3118,3.3111,3.3154,3.3158,3.3145,3.3155,3.3141,3.3146,3.3148,3.3144,3.315,3.3167,3.318,3.3196,3.3246,3.3244,3.327,3.3279,3.3286,3.3291,3.3315,3.3325,3.3212,3.3212,3.3212,0,0,3.3131,3.3131,3.3146,3.3165,3.3167,3.3189,3.3147,3.3173,3.3189,3.3152,3.3186,3.3184,3.3188,3.3232,3.3251,3.3232,3.3322,3.3292,3.3298,3.3299,3.3321,3.3331,3.3341,3.3216,3.3215,3.3214,0,0,3.3207,3.321,3.3244,3.3248,3.3252,3.3243,3.3252,3.325,3.3247,3.3281,3.3253,3.3272,3.3304,3.3307,3.3313,3.3389,3.3366,3.3396,3.344,3.3463,3.3472,3.348,3.3504,3.3513,3.3401,3.3401,3.3401,0,3.325,3.3283,3.3265,3.3292,3.33,3.3268,3.3301,3.3306,3.3316,3.3321,3.3301,3.3339,3.334,3.3382,3.34,3.3408,3.3415,3.3394,3.3473,3.348,3.3487,3.3509,3.3519,3.3405,3.3404,3.3404,3.3404,0,3.3334,3.3358,3.3385,3.3394,3.3406,3.3436,3.3421,3.3435,3.342,3.3413,3.3447,3.3447,3.3462,3.3471,3.3458,3.3511,3.3499,3.3477,3.3439,3.3501,3.3522,3.3531,3.3409,3.3408,3.3407,3.3406,0,0,3.3441,3.344,3.345,3.3452,3.3455,3.3472,3.3501,3.3515,3.3526,3.3534,3.3556,3.3583,3.3562,3.3568,3.3555,3.3576,3.3632,3.355,3.355,3.3562,3.3688,3.3703,3.3713,3.3619,3.362,3.3621,3.3687,0,3.3512,3.356,3.3544,3.3593,3.3612,3.3583,3.3607,3.3611,3.3605,3.3621,3.3615,3.3633,3.3605,3.3608,3.3628,3.3621,3.3657,3.3617,3.3636,3.3637,3.3632,3.3725,3.374,3.3802,3.3695,3.3696,3.3697,0,3.3601,3.3611,3.3662,3.3659,3.3667,3.3689,3.3699,3.3715,3.3719,3.3713,3.372,3.3702,3.3729,3.3694,3.3729,3.3702,3.371,3.3708,3.371,3.3708,3.3668,3.3722,3.3821,3.3829,3.3711,3.371,3.3709,0,3.3669,3.3697,3.3729,3.3733,3.3732,3.3748,3.3748,3.3749,3.3758,3.3767,3.3772,3.3785,3.3792,3.3802,3.3787,3.3763,3.3823,3.3788,3.3817,3.3817,3.3828,3.3827,3.3927,3.3839,3.3839,3.3839,3.3839,0,3.3748,3.3779,3.3759,3.3779,3.3813,3.3794,3.3828,3.3825,3.3826,3.3844,3.382,3.3838,3.3819,3.3834,3.3823,3.3852,3.3856,3.3851,3.3847,3.3851,3.3851,3.3852,3.3846,3.3841,3.3841,3.384,3.384,0,3.3829,3.3818,3.385,3.3846,3.3846,3.387,3.3866,3.3884,3.3877,3.39,3.3904,3.3893,3.3909,3.3896,3.3913,3.3906,3.3943,3.3935,3.3941,3.3938,3.3966,3.3962,3.4067,3.4079,3.3988,3.3989,3.399,0,3.3878,3.3901,3.3899,3.3909,3.391,3.3927,3.3936,3.3919,3.3928,3.3933,3.395,3.3965,3.3975,3.4003,3.3996,3.4008,3.3998,3.4034,3.3999,3.4002,3.3994,3.3991,3.3992,3.404,3.4041,3.4042,3.4042,0,3.3965,3.3958,3.3971,3.3982,3.3992,3.4,3.4006,3.4016,3.3999,3.4011,3.4027,3.4035,3.4052,3.4066,3.4075,3.4075,3.4055,3.4054,3.406,3.4063,3.4064,3.406,3.3956,3.4051,3.405,3.4049,3.4049,3.4048,3.4029,3.4047,3.4048,3.4062,3.4065,3.4071,3.4086,3.4081,3.4094,3.4105,3.4095,3.4114,3.4116,3.4127,3.4129,3.4143,3.4128,3.4139,3.4141,3.4143,3.4145,3.4065,3.4145,3.4145,3.4145,3.4145,3.4145,0,3.4112,3.4111,3.4125,3.4133,3.4144,3.4126,3.4131,3.4141,3.4158,3.4162,3.4172,3.419,3.4204,3.4198,3.4209,3.4222,3.4213,3.4225,3.4222,3.4221,3.416,3.4151,3.4232,3.4232,3.4232,3.4232,3.4232,3.4232,3.4156,3.4184,3.4177,3.4206,3.4205,3.4222,3.4227,3.4231,3.4233,3.4254,3.4265,3.4261,3.426,3.4272,3.4283,3.428,3.4284,3.4299,3.4293,3.4235,3.4226,3.4218,3.4209,3.4301,3.4301,3.4353,3.4354,3.4354]},{"header":{"parameterUnit":"m.s-1","parameterCategory":1,"la1":30.2991,"la2":30.254,"lo1":-89.0895,"lo2":-89.0444,"dy":0.0017,"dx":0.0017,"nx":28,"ny":28,"refTime":"2023-09-22T09:00:00:Z","depth":0,"parameterNumber":3,"parameterNumberName":"V-component_of_WINDS"},"data":[0,0,0,0,0,0,0,0,0,0,0,0,0,0,0,0,0,0,0,0,0,0,0,0,0,0,0,0,0,0,0,0,0,0,0,0,0,0,0,0,0,0,0,0,0,0,0,0,0,0,0,0,0,0,0,0,0,0,0.4937,0.4937,0,0.4901,0.49,0.49,0.4881,0.4881,0.4881,0.4881,0.4841,0.484,0.4839,0,0,0,0,0,0,0,0,0,0,0,0,0,0.4987,0.4986,0.4937,0.4937,0.4936,0.4901,0.49,0.49,0.4881,0.4881,0.4881,0.4881,0.4841,0.484,0.4839,0,0,0,0,0,0,0,0,0,0,0,0,0,0.4959,0.4986,0.4937,0.4923,0.4921,0.4901,0.49,0.49,0.4881,0.4881,0.4881,0.4881,0.4842,0.484,0.4839,0.4829,0,0,0.4834,0.4833,0,0,0,0,0,0,0,0,0.4961,0.4958,0.4925,0.4924,0.4922,0.4895,0.4903,0.4876,0.4881,0.4896,0.4881,0.4881,0.4859,0.4856,0.4849,0.4827,0.4826,0.4834,0.4833,0.4832,0.4832,0,0,0,0,0,0,0,0.4963,0.4959,0.4922,0.4925,0.4923,0.4917,0.4913,0.4898,0.4878,0.4895,0.4893,0.4889,0.4858,0.4851,0.4848,0.4825,0.4834,0.4832,0.4831,0.4831,0.4793,0.4793,0,0,0,0,0,0,0.4968,0.4961,0.4924,0.4921,0.4942,0.4916,0.4912,0.4904,0.4878,0.4874,0.4889,0.4889,0.4853,0.485,0.4846,0.4833,0.4832,0.4831,0.483,0.4793,0.4793,0.4793,0,0,0,0,0,0,0.4969,0.4964,0.4925,0.4941,0.4935,0.4915,0.4907,0.4903,0.4896,0.4874,0.487,0.4886,0.4853,0.4849,0.4834,0.4832,0.483,0.4828,0.4793,0.4793,0.4793,0.4807,0,0,0,0,0,0,0.497,0.4965,0.4962,0.4941,0.4935,0.4914,0.4906,0.4902,0.4893,0.4892,0.487,0.4866,0.4853,0.4836,0.4832,0.4829,0.4827,0.4793,0.4793,0.4793,0.4807,0.4808,0.4809,0,0,0,0,0,0.4972,0.4967,0.4962,0.4958,0.4931,0.4914,0.491,0.4896,0.4893,0.489,0.4876,0.4867,0.4833,0.4835,0.483,0.4827,0.4793,0.4793,0.4793,0.4807,0.4808,0.4809,0,0,0,0,0,0,0.4988,0.4964,0.4958,0.4946,0.4932,0.4911,0.4906,0.4898,0.4883,0.4883,0.4865,0.486,0.4846,0.4835,0.4838,0.4816,0.4812,0.4811,0.4824,0.4825,0.4825,0.4828,0.4826,0,0,0,0,0,0.499,0.498,0.4959,0.4951,0.4944,0.4926,0.4918,0.4909,0.4893,0.4887,0.4872,0.4856,0.4842,0.4833,0.4818,0.4805,0.48,0.4801,0.4801,0.4802,0.4801,0.4793,0.4793,0.4792,0.4792,0.4792,0,0,0.4994,0.498,0.4975,0.4953,0.4941,0.493,0.4921,0.491,0.49,0.4885,0.487,0.4858,0.4839,0.4825,0.4818,0.4815,0.48,0.4802,0.4803,0.4801,0.4793,0.4793,0.4793,0.4792,0.4792,0.4792,0,0,0.4996,0.4985,0.4976,0.4965,0.4947,0.4935,0.4933,0.4912,0.4904,0.4889,0.4877,0.4865,0.4841,0.4828,0.4818,0.4815,0.4805,0.481,0.4814,0.4806,0.4806,0.4806,0.4804,0.4803,0.481,0.481,0.481,0,0.5004,0.4987,0.4973,0.4962,0.4952,0.4938,0.4929,0.4918,0.4896,0.4889,0.4887,0.4856,0.4842,0.4824,0.4823,0.4816,0.4812,0.4813,0.4807,0.4807,0.4807,0.4805,0.4804,0.481,0.481,0.481,0.481,0,0.4996,0.4985,0.498,0.496,0.495,0.494,0.4923,0.4914,0.4905,0.4893,0.4877,0.4861,0.4842,0.4837,0.4828,0.4818,0.4817,0.4811,0.4806,0.4808,0.4805,0.4804,0.4811,0.4811,0.4811,0.4811,0,0,0.5007,0.498,0.4978,0.4969,0.4948,0.4938,0.4926,0.4909,0.4902,0.4887,0.4876,0.4856,0.4851,0.4839,0.4828,0.4821,0.4819,0.4816,0.4816,0.4817,0.4805,0.4809,0.4809,0.4813,0.4812,0.4812,0.4807,0,0.5006,0.4986,0.4973,0.4958,0.4946,0.4932,0.4922,0.4907,0.4896,0.4883,0.487,0.4856,0.485,0.4843,0.4835,0.4821,0.4816,0.4821,0.4801,0.4801,0.4806,0.4808,0.4812,0.4808,0.4806,0.4806,0.4805,0,0.5002,0.4988,0.4972,0.4952,0.4947,0.4938,0.4921,0.491,0.4892,0.4884,0.4872,0.486,0.4847,0.4843,0.4823,0.4827,0.4818,0.4809,0.4809,0.4806,0.4803,0.4805,0.4806,0.4806,0.4804,0.4804,0.4804,0,0.5011,0.4988,0.4976,0.4968,0.4944,0.4938,0.4928,0.4911,0.4901,0.4886,0.4879,0.4862,0.4852,0.4839,0.4823,0.4822,0.4804,0.48,0.4796,0.4796,0.4793,0.4793,0.4793,0.4788,0.4788,0.4788,0.4788,0,0.501,0.5001,0.4979,0.4971,0.496,0.4944,0.4933,0.4921,0.4906,0.4895,0.4881,0.4871,0.4851,0.4837,0.4825,0.4809,0.4805,0.4797,0.4794,0.4799,0.4799,0.4792,0.4792,0.4788,0.4788,0.4788,0.4788,0,0.5019,0.5004,0.4989,0.4968,0.4962,0.4955,0.4936,0.4927,0.4915,0.4901,0.4896,0.4876,0.486,0.4843,0.482,0.4811,0.4797,0.4792,0.4803,0.4801,0.4798,0.4798,0.4792,0.479,0.4788,0.4788,0.4788,0,0.5019,0.5012,0.499,0.4982,0.4972,0.4959,0.4949,0.4933,0.4923,0.4903,0.4896,0.4879,0.4864,0.4838,0.4821,0.4803,0.4798,0.4797,0.4795,0.48,0.4797,0.4798,0.4797,0.4798,0.4798,0.4798,0.4798,0,0.5021,0.5014,0.5001,0.4986,0.4975,0.4961,0.4947,0.4941,0.4922,0.4911,0.4894,0.4883,0.486,0.4843,0.4823,0.4811,0.4801,0.4799,0.4797,0.4801,0.4808,0.4804,0.4804,0.4799,0.4799,0.4799,0.4799,0.4799,0.5025,0.5018,0.5001,0.4987,0.4975,0.4962,0.4952,0.4939,0.4925,0.4906,0.4897,0.488,0.4862,0.4835,0.4823,0.4809,0.4806,0.4803,0.4802,0.4802,0.4803,0.481,0.4805,0.4805,0.4805,0.4805,0.4805,0,0.5026,0.5015,0.5002,0.4983,0.4972,0.4964,0.4948,0.4939,0.4924,0.4909,0.4895,0.4875,0.4858,0.484,0.4821,0.4813,0.4808,0.4809,0.4809,0.4806,0.4807,0.481,0.4813,0.4813,0.4813,0.4813,0.4813,0.4813,0.5026,0.5012,0.5003,0.4983,0.4972,0.4956,0.4947,0.4935,0.4922,0.4902,0.4888,0.4876,0.4859,0.4839,0.4823,0.4817,0.4811,0.4813,0.4806,0.4807,0.4806,0.4806,0.4809,0.4812,0.4812,0.4807,0.4807,0.4807]}]]